CAPE
1 1 0 1 1 2 1 1 1 1 2 3 2 3 3 2 3 3 2 1 1 1 0 0 0 0 0 0 0 0 517 0 0 0 0 0 24 34 40 13 1 27 42 305 467 425 613
2 2 2 1 0 1 1 1 1 2 4 1 0 0 0 1 1 1 2 2 1 1 0 0 0 0 0 0 0 0 0 0 0 0 0 0 2 0 18 23 8 28 169 367 573 594 732
1 3 3 2 0 1 3 3 2 3 1 0 0 1 1 0 0 2 1 0 0 0 0 0 0 0 0 0 0 0 0 0 0 0 5 0 0 0 29 20 19 28 197 478 665 850 806
3 3 2 1 2 1 0 0 2 1 0 0 1 1 0 1 1 2 3 2 0 0 0 0 0 0 0 0 0 0 0 0 0 0 0 0 0 12 25 44 29 95 81 455 599 820 1152
4 2 1 1 0 0 0 0 0 0 0 1 1 1 1 1 1 1 1 0 0 0 0 0 0 0 0 0 0 0 0 0 0 0 0 0 1 68 26 28 105 72 134 262 366 527 802
4 3 2 1 0 0 0 0 0 0 0 0 1 3 2 2 1 1 0 0 0 0 0 0 0 0 0 0 0 0 0 0 0 4 0 0 58 60 81 111 72 100 332 42 96 521 504
10 9 10 7 0 0 0 0 0 1 0 1 1 2 1 2 1 0 0 0 0 0 0 0 0 0 0 0 0 0 0 0 41 99 143 75 153 220 60 99 145 69 70 76 96 370 369
7 7 5 4 0 0 0 0 0 1 1 1 1 2 1 1 0 0 0 0 0 0 0 0 0 0 0 0 0 0 0 52 99 207 153 202 138 124 71 0 4 57 90 120 29 261 293
4 1 1 0 0 0 0 0 1 1 1 1 0 2 0 1 0 0 0 0 0 0 0 0 0 0 0 0 0 0 0 100 233 198 214 216 132 246 46 2 5 104 156 10 25 189 175
0 0 0 0 0 2 0 0 0 1 1 1 1 2 0 0 0 0 0 0 0 0 0 0 0 0 0 0 0 0 0 19 113 237 227 236 140 146 91 19 92 58 0 0 0 36 42
0 0 0 0 0 1 0 0 0 0 1 0 1 1 0 0 0 0 0 0 0 0 0 0 0 0 0 0 0 0 0 0 5 26 235 226 205 131 129 75 102 68 0 0 9 55 86
0 0 0 0 0 0 0 0 0 0 0 1 0 0 0 0 0 0 0 0 0 0 0 0 0 0 0 0 0 0 0 0 0 0 1 125 188 202 139 43 84 6 0 0 29 83 123
1 0 2 1 0 0 0 0 0 0 0 0 0 0 2 0 0 0 0 0 0 0 0 0 0 0 0 0 0 0 0 0 0 0 0 0 13 0 2 38 8 0 33 138 186 59 204
3 0 1 1 0 0 0 0 0 0 0 0 0 0 0 0 0 0 0 0 0 0 0 0 0 0 0 0 0 0 0 0 0 0 0 0 0 0 0 0 5 11 21 88 56 137 65
2 1 1 1 0 0 0 0 0 0 0 0 0 0 0 0 0 0 0 0 0 0 0 0 0 0 0 0 0 0 0 0 0 0 0 0 0 0 0 0 2 127 29 20 23 51 38
2 2 2 1 0 0 0 0 0 0 0 0 0 0 0 0 0 0 0 0 0 0 0 0 0 0 0 0 0 0 0 0 0 0 0 0 0 0 0 0 0 15 20 36 4 34 125
3 2 2 1 0 0 0 0 0 0 0 0 0 0 0 0 0 0 0 0 0 0 0 0 0 0 0 0 0 0 0 0 0 0 0 0 1 3 0 0 0 0 0 0 5 27 164
1 0 1 1 0 0 0 0 0 0 0 0 0 2 0 0 0 0 0 0 0 0 0 0 0 0 0 0 0 0 0 0 0 0 0 0 0 53 3 0 29 54 42 28 37 59 207
0 1 2 0 0 0 0 0 0 0 0 0 6 0 0 0 0 0 0 0 0 0 0 0 0 0 0 0 0 0 0 0 0 0 0 0 0 155 31 164 21 1 0 5 79 72 541
0 1 0 0 0 0 0 0 0 0 0 0 26 151 0 0 0 0 0 0 0 0 0 0 0 4 0 0 0 0 0 0 0 0 0 0 0 76 126 136 63 0 10 86 35 111 86
0 0 0 0 0 0 0 0 0 0 0 0 8 274 199 10 0 0 2 9 29 0 0 0 0 1 128 201 92 1 0 0 0 0 0 0 0 6 62 49 77 85 101 32 82 31 42
0 0 0 0 0 0 0 0 0 0 0 0 0 0 109 116 257 179 37 110 117 75 188 60 55 186 188 439 191 26 1 0 6 0 0 0 0 4 13 51 8 5 1 4 16 3 14
0 0 0 0 0 0 0 0 0 0 0 0 0 0 0 68 187 420 419 396 376 247 399 456 394 376 481 477 792 588 84 19 79 250 90 0 0 12 34 3 6 1 0 2 16 26 61
0 0 0 0 0 0 1 4 0 0 0 0 0 0 0 70 302 420 550 394 351 368 524 577 542 656 782 643 601 435 22 175 380 295 235 248 15 243 206 51 34 3 8 38 46 76 217
0 0 0 0 0 0 4 5 6 2 0 0 0 0 0 0 4 86 146 367 433 543 749 683 699 736 847 685 932 673 492 543 556 517 442 261 370 326 301 483 182 255 469 349 190 281 268
1 1 0 0 1 2 3 3 6 4 0 0 0 0 0 0 2 0 10 240 420 658 857 816 708 681 525 751 896 763 619 531 604 521 502 458 672 670 31 311 304 240 29 23 337 427 447
4 3 1 1 1 1 4 4 4 6 0 0 0 0 0 2 0 0 66 295 207 443 859 901 755 863 544 346 346 312 495 344 313 171 707 587 607 324 280 267 186 123 22 233 474 754 421
1 1 2 1 0 3 4 5 6 4 0 0 6 0 0 6 14 0 0 4 217 375 839 709 834 839 818 368 210 136 245 253 3 15 647 328 285 384 347 272 368 311 266 253 1098 717 528
0 0 0 1 3 3 5 5 5 4 1 0 5 0 0 0 8 1 0 0 0 33 177 431 677 1188 945 1074 741 291 386 169 78 3 528 181 411 666 712 764 978 736 877 926 815 849 785
CIN
-0 -0 -0 -0 -0 -0 -0 -0 -0 -0 -0 -0 -0 -0 -0 -0 -0 -0 -0 -0 -0 -0 -0 -0 -0 -0 -0 -0 -0 -0 -555 -0 -0 -0 -0 -0 -1 -0 -0 -0 -0 -1 -7 -1 -0 -1 -0
-0 -0 -0 -0 -0 -0 -0 -0 -0 -0 -0 -0 -0 -0 -0 -0 -0 -0 -0 -0 -0 -0 -0 -0 -0 -0 -0 -0 -0 -0 -0 -0 -0 -0 -0 -0 -0 -0 -0 -0 -13 -0 -15 -0 -0 -0 -0
-0 -0 -0 -0 -0 -0 -0 -0 -0 -0 -0 -0 -0 -0 -0 -0 -0 -0 -0 -0 -0 -0 -0 -0 -0 -0 -0 -0 -0 -0 -0 -0 -0 -0 -2 -0 -0 -1 -0 -0 -0 -3 -6 -0 -0 -0 -0
-0 -0 -0 -0 -0 -0 -0 -0 -0 -0 -0 -0 -0 -0 -0 -0 -0 -0 -0 -0 -0 -0 -0 -0 -0 -0 -0 -0 -0 -0 -0 -0 -0 -0 -0 -0 -0 -0 -10 -25 -36 -16 -18 -14 -0 -3 -5
-0 -0 -0 -0 -0 -0 -0 -0 -0 -0 -0 -0 -0 -0 -0 -0 -0 -0 -0 -0 -0 -0 -0 -0 -0 -0 -0 -0 -0 -0 -0 -0 -0 -0 -0 -0 -28 -27 -34 -37 -16 -3 -33 -5 -0 -5 -0
-8 -9 -7 -8 -0 -0 -0 -0 -0 -0 -0 -0 -0 -0 -0 -0 -0 -0 -0 -0 -0 -0 -0 -0 -0 -0 -0 -0 -0 -0 -0 -0 -85 -136 -0 -0 -49 -27 -12 -1 -26 -19 -7 -4 -2 -0 -2
-8 -7 -7 -8 -0 -0 -0 -0 -0 -0 -0 -0 -0 -0 -0 -0 -0 -0 -0 -0 -0 -0 -0 -0 -0 -0 -0 -0 -0 -0 -0 -0 -133 -41 -29 -45 -4 -0 -20 -0 -4 -3 -3 -1 -2 -2 -2
-8 -12 -15 -17 -0 -0 -1 -0 -0 -0 -0 -0 -0 -0 -0 -0 -0 -0 -0 -0 -0 -0 -0 -0 -0 -0 -0 -0 -0 -0 -0 -187 -79 -6 -11 -3 -3 -2 -21 -0 -34 -9 -0 -1 -9 -4 -1
-16 -27 -31 -27 -0 -0 -0 -0 -1 -1 -0 -0 -0 -0 -0 -0 -0 -0 -0 -0 -0 -0 -0 -0 -0 -0 -0 -0 -0 -0 -0 -109 -16 -8 -3 -0 -3 -1 -19 -24 -35 -3 -0 -3 -16 -5 -0
-8 -0 -4 -0 -0 -0 -0 -0 -1 -2 -0 -0 -0 -0 -0 -0 -0 -0 -0 -0 -0 -0 -0 -0 -0 -0 -0 -0 -0 -0 -0 -169 -35 -4 -3 -0 -1 -6 -3 -40 -6 -23 -0 -0 -0 -21 -174
-0 -0 -0 -0 -1 -1 -1 -0 -0 -0 -1 -0 -0 -0 -0 -0 -0 -0 -0 -0 -0 -0 -0 -0 -0 -0 -0 -0 -0 -0 -0 -0 -142 -81 -2 -0 -2 -9 -0 -11 -3 -3 -0 -0 -31 -12 -0
-0 -0 -1 -0 -0 -1 -0 -0 -0 -0 -2 -0 -0 -0 -0 -0 -0 -0 -0 -0 -0 -0 -0 -0 -0 -0 -0 -0 -0 -0 -0 -0 -0 -0 -0 -18 -3 -1 -0 -20 -12 -0 -0 -7 -21 -5 -0
-0 -1 -5 -6 -0 -0 -0 -0 -0 -0 -0 -0 -0 -0 -0 -0 -0 -0 -0 -0 -0 -0 -0 -0 -0 -0 -0 -0 -0 -0 -0 -0 -0 -0 -0 -0 -85 -8 -0 -24 -0 -0 -18 -0 -3 -20 -0
-0 -4 -6 -4 -0 -0 -0 -0 -0 -0 -0 -0 -0 -0 -0 -0 -0 -0 -0 -0 -0 -0 -0 -0 -0 -0 -0 -0 -0 -0 -0 -0 -0 -0 -0 -0 -0 -0 -0 -0 -0 -25 -1 -1 -9 -0 -6
-1 -4 -7 -6 -0 -0 -0 -0 -0 -0 -0 -0 -0 -0 -0 -0 -0 -0 -0 -0 -0 -0 -0 -0 -0 -0 -0 -0 -0 -0 -0 -0 -0 -0 -0 -0 -0 -0 -0 -0 -0 -0 -0 -0 -0 -0 -0
-3 -7 -8 -9 -0 -0 -0 -0 -0 -0 -0 -0 -0 -0 -0 -0 -0 -0 -0 -0 -0 -0 -0 -0 -0 -0 -0 -0 -0 -0 -0 -0 -0 -0 -0 -0 -0 -0 -0 -0 -0 -0 -2 -0 -0 -0 -0
-4 -8 -11 -12 -0 -0 -0 -0 -0 -0 -0 -0 -0 -0 -0 -0 -0 -0 -0 -0 -0 -0 -0 -0 -0 -0 -0 -0 -0 -0 -0 -0 -0 -0 -0 -0 -0 -0 -0 -0 -0 -0 -0 -0 -0 -24 -0
-12 -4 -17 -14 -0 -0 -0 -0 -0 -0 -0 -0 -0 -0 -0 -0 -0 -0 -0 -0 -0 -0 -0 -0 -0 -0 -0 -0 -0 -0 -0 -0 -0 -0 -0 -0 -0 -14 -0 -0 -5 -5 -0 -0 -6 -1 -128
-2 -17 -17 -0 -0 -0 -0 -0 -0 -0 -0 -0 -5 -0 -0 -0 -0 -0 -0 -0 -0 -0 -0 -0 -0 -0 -0 -0 -0 -0 -0 -0 -0 -0 -0 -0 -0 -0 -0 -0 -3 -0 -0 -1 -6 -1 -14
-0 -18 -4 -0 -0 -0 -0 -0 -0 -0 -0 -0 -43 -0 -0 -0 -0 -0 -0 -0 -0 -0 -0 -0 -0 -42 -5 -2 -0 -0 -0 -0 -0 -0 -0 -0 -0 -0 -0 -0 -1 -0 -0 -0 -2 -0 -20
-15 -18 -0 -0 -0 -0 -0 -0 -0 -0 -0 -0 -2 -0 -28 -0 -0 -0 -0 -0 -9 -0 -0 -0 -0 -23 -7 -1 -0 -0 -0 -0 -0 -0 -0 -0 -0 -0 -1 -27 -0 -5 -0 -0 -0 -0 -0
-0 -0 -0 -0 -0 -0 -0 -0 -0 -0 -0 -0 -0 -0 -19 -5 -0 -1 -26 -3 -2 -0 -2 -15 -14 -0 -8 -0 -0 -8 -0 -0 -42 -0 -0 -0 -0 -0 -0 -4 -3 -3 -0 -0 -0 -0 -0
-0 -0 -0 -0 -0 -0 -0 -0 -0 -0 -0 -0 -0 -0 -0 -1 -0 -0 -0 -0 -0 -7 -27 -7 -6 -14 -19 -4 -2 -1 -0 -4 -3 -0 -3 -0 -0 -0 -1 -0 -0 -0 -0 -0 -0 -0 -2
-0 -0 -0 -0 -0 -0 -0 -0 -0 -0 -0 -0 -0 -0 -0 -2 -0 -0 -0 -0 -1 -3 -15 -1 -38 -36 -18 -47 -28 -15 -146 -13 -1 -0 -0 -0 -0 -0 -0 -0 -6 -19 -0 -0 -0 -8 -3
-0 -0 -0 -0 -0 -0 -0 -0 -2 -7 -0 -0 -0 -0 -0 -0 -0 -18 -5 -0 -2 -3 -16 -36 -33 -71 -105 -74 -10 -0 -0 -0 -0 -0 -0 -3 -0 -0 -0 -9 -3 -0 -3 -3 -0 -0 -2
-0 -0 -0 -0 -0 -0 -0 -0 -1 -7 -0 -0 -0 -0 -0 -0 -3 -0 -75 -33 -1 -0 -0 -10 -73 -85 -114 -37 -0 -0 -0 -0 -0 -2 -0 -1 -0 -0 -4 -1 -0 -202 -340 -239 -2 -0 -1
-0 -0 -0 -0 -0 -0 -0 -0 -1 -2 -0 -0 -0 -0 -0 -33 -0 -0 -29 -49 -66 -25 -4 -9 -70 -43 -64 -2 -2 -111 -0 -78 -34 -82 -0 -0 -3 -1 -1 -14 -5 -194 -71 -160 -0 -3 -25
-0 -0 -0 -0 -0 -0 -0 -1 -2 -2 -1 -0 -0 -0 -0 -132 -40 -0 -0 -187 -65 -39 -0 -60 -37 -29 -0 -0 -13 -142 -8 -170 -58 -68 -10 -7 -14 -0 -0 -2 -0 -15 -2 -0 -19 -33 -27
-0 -0 -0 -0 -0 -1 -1 -1 -1 -0 -0 -0 -0 -0 -0 -0 -4 -10 -0 -0 -7 -238 -156 -91 -103 -35 -42 -6 -0 -8 -202 -1 -154 -76 -0 -0 -0 -0 -7 -0 -39 -16 -10 -19 -6 -9 -17
Wind_Speed
12 13 14 14 15 15 15 16 16 16 16 17 18 17 18 19 19 19 18 18 19 19 18 16 13 10 9 11 6 10 9 8 10 11 13 9 10 9 6 11 7 11 9 7 6 10 9
13 13 14 15 15 16 16 15 16 16 17 18 19 20 20 20 20 20 19 19 19 19 18 15 11 8 9 13 7 9 13 13 14 12 8 9 4 8 7 6 3 6 9 9 8 8 7
13 13 13 14 16 16 16 16 17 17 18 19 19 20 20 21 22 22 20 19 19 19 17 15 8 8 11 3 2 9 13 15 13 10 7 2 5 12 4 9 4 9 9 9 8 7 6
12 13 13 15 15 16 18 18 18 18 19 19 19 20 21 22 22 22 21 20 20 18 15 10 6 10 5 6 2 10 14 12 8 8 8 3 6 9 13 8 8 14 14 11 8 6 6
10 12 14 14 16 16 17 19 19 19 19 19 20 20 22 23 24 24 22 21 20 14 11 8 9 10 6 5 10 13 14 14 12 9 5 6 12 13 8 16 17 11 9 19 11 6 1
8 9 10 10 11 16 17 19 19 19 18 19 19 19 21 22 24 23 24 21 6 6 9 9 9 9 9 14 12 11 13 12 13 11 9 10 11 14 15 15 4 17 18 6 2 9 5
10 11 12 13 12 17 17 19 20 19 20 19 19 20 23 23 24 22 18 7 8 9 15 12 7 8 10 7 6 12 16 14 16 12 17 17 15 16 12 12 14 11 7 5 4 6 7
10 11 12 12 12 16 16 15 18 19 19 20 20 19 23 25 24 22 9 9 9 8 9 18 11 8 3 10 13 16 17 17 16 17 20 16 16 5 2 2 7 5 11 7 4 3 9
11 11 12 12 12 14 15 15 17 17 19 20 21 19 21 25 27 9 9 9 5 9 9 16 14 16 15 11 14 19 19 20 18 20 21 20 18 14 9 8 12 15 8 7 3 6 9
11 12 12 12 12 13 15 15 17 18 20 20 20 18 19 28 9 7 6 3 6 6 8 15 14 12 19 14 17 18 20 18 14 22 22 13 10 8 10 12 11 5 7 3 8 11 14
12 12 13 13 13 13 16 15 17 18 19 22 22 19 16 8 14 8 7 5 8 6 9 13 16 10 15 19 13 12 17 23 19 19 20 15 20 17 13 15 11 4 6 7 8 15 7
12 12 13 13 14 13 15 13 16 18 19 22 21 18 17 6 8 12 7 6 7 9 6 10 11 14 20 21 13 20 16 15 15 18 20 20 13 16 12 15 13 7 10 11 12 15 12
11 12 13 13 14 15 16 15 16 18 20 22 22 19 8 9 2 3 6 9 9 12 6 11 14 19 20 19 16 13 19 20 17 19 19 19 21 11 10 16 6 11 17 11 10 3 13
11 13 13 13 14 15 16 17 18 20 22 24 27 22 8 10 4 7 7 10 11 2 5 4 9 19 20 20 17 18 19 18 21 18 13 17 20 21 17 17 16 15 20 11 10 11 3
11 12 13 13 13 14 15 17 19 21 23 24 32 7 8 6 9 6 9 12 10 7 2 6 10 17 19 20 13 16 20 19 20 21 18 15 16 21 22 19 22 17 14 19 17 15 7
12 12 12 13 13 15 15 16 19 22 25 21 9 8 5 5 8 8 10 17 7 4 6 7 11 12 18 18 16 18 16 17 18 19 19 7 11 17 20 21 21 18 8 13 10 12 8
12 12 12 13 13 14 15 16 19 22 27 25 8 8 7 8 8 9 11 16 11 8 7 8 13 10 16 15 17 15 16 9 18 18 18 17 13 15 18 14 17 15 14 14 17 9 6
11 12 12 12 13 14 14 16 18 20 27 13 8 5 8 8 9 10 12 17 5 9 10 8 8 14 12 13 17 18 15 15 15 17 19 19 11 16 17 21 21 9 10 17 12 17 9
11 11 11 11 12 12 13 15 16 16 14 10 8 2 6 9 8 9 13 5 9 14 11 8 9 10 10 14 13 16 12 8 5 16 16 16 12 12 19 14 9 11 14 17 16 11 13
10 10 10 10 11 11 12 14 16 16 11 6 7 6 7 8 12 15 3 9 14 15 14 11 9 10 10 13 12 13 13 10 7 11 5 12 19 14 15 14 16 19 19 13 16 12 5
9 9 9 9 10 10 12 14 16 19 15 6 7 3 7 7 10 10 3 10 7 9 12 8 12 16 14 12 13 12 17 16 11 7 8 14 16 19 13 7 6 15 12 10 11 15 17
8 8 7 7 7 9 11 13 16 21 26 7 7 6 5 10 3 7 6 13 10 7 4 13 15 12 14 16 12 15 16 14 14 14 15 18 16 19 19 17 10 12 12 13 11 12 17
7 6 5 5 6 7 9 12 14 18 20 6 6 4 6 3 12 10 5 5 3 5 13 13 8 8 12 13 13 12 14 17 17 14 16 16 14 11 13 17 12 17 16 19 15 16 12
5 4 2 2 5 7 9 10 12 12 13 9 5 8 7 11 6 8 7 4 9 6 11 10 5 11 5 11 11 16 9 6 12 14 16 13 13 7 14 17 23 11 19 11 18 13 7
1 2 2 3 5 7 8 10 11 11 12 10 5 6 6 9 7 6 11 7 9 10 10 9 6 7 7 9 12 14 7 5 9 6 9 11 14 11 12 16 22 6 7 12 9 10 5
5 4 4 4 5 7 8 10 11 11 12 10 4 5 6 7 2 8 9 8 10 7 6 5 5 5 5 6 11 9 11 12 12 11 10 8 3 8 8 11 15 2 11 35 15 7 5
7 5 5 6 6 7 9 9 11 12 11 9 5 4 6 9 7 6 7 11 6 7 10 4 6 7 7 6 6 7 7 5 5 16 19 9 8 9 10 6 19 14 24 33 13 4 6
8 7 7 6 6 7 9 10 11 12 13 10 5 4 6 7 13 12 8 8 6 6 8 9 7 9 7 8 7 5 17 5 4 16 7 7 6 8 10 12 11 12 9 7 8 6 6
7 7 7 7 7 7 8 10 10 11 12 12 6 3 5 7 10 15 15 16 14 12 10 7 2 6 7 7 9 4 5 4 3 7 4 5 5 4 6 8 5 7 8 7 6 8 6
Wind_Direction
19 15 12 11 8 2 354 350 346 342 342 342 340 339 337 337 336 333 331 327 324 320 316 311 308 307 277 220 90 128 150 165 218 234 251 262 241 253 155 114 175 104 100 117 126 109 96
16 13 9 6 3 358 347 344 342 342 344 344 342 342 339 338 336 333 330 324 320 314 311 306 299 299 247 245 100 143 180 181 230 221 230 247 349 311 116 132 76 106 98 123 163 115 114
13 9 5 0 357 351 346 342 340 343 346 344 343 339 338 337 335 331 326 321 315 310 305 301 280 269 257 346 109 162 178 195 213 242 252 80 304 247 170 138 127 154 149 160 154 159 129
11 4 0 354 351 349 347 344 341 343 343 342 341 339 336 333 333 327 321 313 308 300 296 291 260 258 278 125 100 184 191 200 214 224 282 313 278 281 258 87 192 221 186 76 152 170 158
5 4 0 357 349 345 344 342 341 341 341 340 339 336 335 332 329 325 316 307 297 283 268 262 241 232 216 134 206 192 196 203 200 211 211 289 251 245 185 220 202 217 111 266 134 184 344
340 341 339 340 345 346 343 340 339 339 338 338 335 332 331 329 327 322 316 296 315 273 225 232 267 257 210 196 182 192 193 237 197 200 206 230 227 220 217 222 189 301 164 159 353 147 231
323 325 326 324 327 341 342 341 338 338 337 335 332 330 331 327 324 321 318 209 205 195 217 232 198 239 138 140 123 200 185 210 211 210 221 209 234 227 292 57 145 261 13 292 107 89 278
333 332 331 328 328 338 331 329 339 337 334 334 332 329 329 324 319 316 278 258 45 347 281 211 248 238 281 189 187 193 184 199 204 214 224 209 243 21 2 11 282 245 243 216 112 196 237
332 332 331 329 330 328 328 331 338 331 333 331 331 327 327 322 319 280 272 311 337 335 253 206 204 212 200 213 216 191 194 205 198 219 219 237 206 181 205 197 246 243 275 32 290 193 232
334 333 330 331 331 331 329 332 334 329 335 330 328 324 327 326 295 338 252 109 288 307 268 167 197 212 203 202 228 195 197 208 221 227 232 224 197 214 204 244 258 85 317 249 265 258 107
334 334 332 330 328 335 328 327 330 327 329 328 326 323 316 330 316 258 39 277 305 233 260 136 154 139 180 204 178 209 186 220 226 228 237 208 239 183 242 232 264 333 316 289 245 268 300
332 332 330 330 325 321 321 322 325 324 323 322 317 317 320 194 211 270 299 284 240 230 240 152 153 194 192 206 181 180 203 231 228 244 237 260 222 245 223 229 253 309 269 241 238 248 257
325 323 322 325 323 318 320 322 318 318 318 316 312 313 290 298 349 340 260 233 222 248 89 152 177 178 192 192 196 161 191 200 215 216 224 219 248 241 255 226 190 222 243 229 301 223 292
316 314 317 320 319 320 318 316 320 322 321 318 316 314 181 256 275 264 229 227 252 258 203 116 177 173 197 188 197 190 196 202 214 220 211 215 208 224 215 232 205 220 251 270 213 291 93
305 307 310 315 317 319 318 320 323 326 323 325 310 193 219 158 213 235 232 227 221 252 15 227 207 187 200 191 210 204 208 211 203 226 235 207 226 191 217 206 245 235 224 277 301 283 236
294 297 303 313 317 322 319 324 327 328 324 333 305 256 124 147 182 219 236 249 279 325 346 253 228 217 197 202 198 200 196 222 224 201 246 253 222 184 194 198 219 267 331 233 225 258 280
290 295 305 311 320 322 323 327 331 330 326 327 252 233 112 156 194 219 232 238 234 180 229 262 253 209 224 201 194 216 226 201 220 183 223 254 251 160 173 204 198 205 241 254 280 263 277
293 297 302 313 320 322 326 329 331 333 332 301 284 244 139 186 208 218 234 254 38 270 201 252 291 295 284 228 194 228 225 210 191 218 198 230 231 170 189 205 233 287 262 231 226 232 31
290 291 301 313 318 320 327 328 331 332 355 311 273 51 156 222 241 210 239 270 253 251 241 233 234 232 252 272 194 224 202 111 184 215 200 215 241 203 191 171 207 240 247 268 273 258 177
280 288 302 310 318 325 332 330 328 329 342 285 271 206 149 212 273 287 209 242 227 199 258 277 270 290 245 247 226 204 211 141 170 230 52 245 235 253 187 204 196 203 236 212 273 276 49
274 289 299 312 324 330 332 332 330 327 338 272 248 352 14 184 224 239 287 305 278 236 204 225 233 243 239 226 220 232 212 142 194 152 210 239 237 254 256 246 267 190 204 218 245 287 299
276 286 299 310 324 335 335 336 334 333 330 248 312 338 347 288 263 257 200 235 253 237 283 228 237 209 238 257 198 199 200 169 186 179 214 213 244 234 257 237 198 255 252 276 253 246 267
280 286 296 316 335 341 341 338 344 345 334 313 8 259 272 221 244 238 275 115 348 330 253 267 335 319 250 260 343 306 204 186 199 183 203 216 233 217 242 239 229 231 249 265 250 257 240
278 282 294 350 348 353 349 346 347 353 353 312 2 293 271 266 220 273 31 336 267 288 298 293 272 266 4 326 291 266 208 152 130 190 190 207 219 218 241 222 220 235 247 248 247 251 224
284 108 60 14 5 3 353 350 346 351 338 305 320 310 311 282 315 278 246 298 295 253 228 232 250 300 299 282 247 214 161 142 173 197 252 189 189 225 233 173 236 166 6 250 237 270 312
62 59 39 20 16 8 358 354 343 345 338 301 309 315 289 298 283 8 296 289 289 331 216 191 178 267 275 266 240 197 197 190 178 186 216 228 298 287 246 298 259 117 24 320 332 254 53
36 35 31 23 15 0 356 351 347 348 339 314 303 319 278 287 284 344 317 346 330 294 295 120 2 233 212 235 261 303 235 91 355 323 172 188 225 257 282 229 232 160 199 214 231 59 82
8 10 11 8 1 351 349 349 351 349 342 321 330 19 309 301 302 296 278 278 289 243 313 4 259 207 225 246 224 114 272 138 108 273 344 208 281 250 253 273 281 88 161 234 99 105 80
352 341 344 344 342 343 341 346 346 349 339 336 270 95 328 266 299 320 283 274 271 281 302 314 335 284 353 290 271 97 87 251 95 258 282 251 332 10 341 350 35 32 56 85 25 109 93